GSAT0219 (GALILEO 23)

Last updated on Oct. 31, 2020, 5:53 a.m. UTC

1 43566U 18060C   20303.93878654 -.00000090  00000-0  00000+0 0  9996
2 43566  56.8941  37.3729 0003908 250.4034 109.5642  1.70476273 14131
UTC
Height (km)
Latitude
Longitude
Inclination
Orbital Period
UTC large
Height (km)
Speed (km/s)
/
Latitude / Longitude
Inclination (degrees)
Orbital Period (minutes)
Azimuth
Elevation
Range (km)
Doppler Factor
iOS Compass Heading
iOS Angle

Next 30 passes for location: Hong Kong

Rise time Rise Azimuth (degrees) Set time Set Azimuth (degrees) Duration Max altitude (degrees)

No matching passes for this satellites